Overview Statistics Trail Chart Weather Telemetry Raw packets
 

This is the latest recevied weather packets stored in our database for station/object G6UIM-13. If no packets are shown the sender has not sent any weather packets the latest 10 day(s).

<< 1 2 3 4 5 6 7 >>
Time Temp. Humidity Pressure Rain* Wind** Luminosity Snow
1788613444 21.11° C 63% 1026.4 hPa 0 mm - - -
1788613189 21.11° C 63% 1026.4 hPa 0 mm - - -
1788612914 20.56° C 63% 1026.3 hPa 0 mm - - -
1788612639 20.56° C 63% 1026.3 hPa 0 mm - - -
1788612359 21.11° C 62% 1026.3 hPa 0 mm - - -
1788612084 21.11° C 62% 1026.4 hPa 0 mm - - -
1788611799 20.56° C 63% 1026.4 hPa 0 mm - - -
1788611559 20° C 65% 1026.4 hPa 0 mm - - -
1788611284 20° C 65% 1026.4 hPa 0 mm - - -
1788611014 20° C 64% 1026.4 hPa 0 mm - - -
1788610734 20.56° C 63% 1026.4 hPa 0 mm - - -
1788610469 21.11° C 60% 1026.3 hPa 0 mm - - -
1788610224 21.11° C 60% 1026.3 hPa 0 mm - - -
1788609969 21.67° C 58% 1026.4 hPa 0 mm - - -
1788609679 22.22° C 57% 1026.4 hPa 0 mm - - -
1788609429 21.67° C 56% 1026.4 hPa 0 mm - - -
1788609179 21.67° C 57% 1026.5 hPa 0 mm - - -
1788608894 21.67° C 56% 1026.5 hPa 0 mm - - -
1788608626 21.67° C 56% 1026.4 hPa 0 mm - - -
1788608349 21.11° C 58% 1026.5 hPa 0 mm - - -
1788608104 21.11° C 56% 1026.5 hPa 0 mm - - -
1788607852 21.11° C 56% 1026.5 hPa 0 mm - - -
1788607574 21.67° C 55% 1026.5 hPa 0 mm - - -
1788607329 22.22° C 56% 1026.5 hPa 0 mm - - -
1788607089 21.67° C 57% 1026.5 hPa 0 mm - - -

* Rain latest hour (hover to see other rain measurements)
** Current wind speed in m/s (hover to see current wind gust speed)